"Pseudo-MPEC" for P11XKzC

Created 2024 Sep 11 3:22:09 UT using Find_Orb

Click here for an explanation of pseudo-MPECs

 
 Astrometry: 
     P11XKzC* C2024 09 01.57159501 59 08.159-18 11 43.96   ~91Fb 22.12wXNEOCPF51
     P11XKzC  C2024 09 01.58194901 59 07.348-18 11 40.63   ~91Fb 21.99wXNEOCPF51
     P11XKzC  C2024 09 01.59228801 59 06.556-18 11 37.18   ~91Fb 22.43wXNEOCPF51
     P11XKzC  C2024 09 09.51948001 48 27.996-17 25 17.68   ~99EM 21.86wXNEOCPF51
     P11XKzC  C2024 09 09.53119601 48 26.809-17 25 13.43   ~99EM 22.28wXNEOCPF51
     P11XKzC  C2024 09 09.54292801 48 25.596-17 25 08.93   ~99EM 21.33wXNEOCPF51

Station data:
(F51) Pan-STARRS 1, Haleakala  (N20.707234 W156.255910)  US/Hawaii.
   Observers J. Bulger, T. Lowe, A. Schultz, M. Willman. Measurers K.
   Chambers, S. Chastel, T. de Boer, L. Denneau, J. Fairlamb, H. Flewelling,
   M. Huber, C.-C. Lin, E. Magnier, Y. Ramanjooloo, R. Wainscoat, R. Weryk.
   1.8-m Ritchey-Chrétien + CCD.

Orbital elements:  P11XKzC
   Perihelion 2024 Jul 2.07724 +/- 2.89 TT =  1:51:13 (JD 2460493.57724)
Epoch 2024 Sep  9.0 TT = JDT 2460562.5   Earth MOID: 0.1227      AutoNEOCP
M  25.38599422 +/- 2.6              (J2000 ecliptic)
n   0.36832529 +/- 0.0314           Peri.  231.67622 +/- 3.3
a   1.92744362 +/- 0.11             Node    59.40791 +/- 4.3
e   0.4336105 +/- 0.0334            Incl.    7.95165 +/- 0.6
P   2.676/977.378d         H 22.16  G  0.15   U 10.4
q 1.09168372 +/- 0.0109    Q 2.76320353 +/- 0.221
From 6 observations 2024 Sept. 1-9; mean residual 0".07
Residuals in arcseconds: 
240901 F51  .02+  .03+    240901 F51  .06+  .00     240909 F51  .11+  .07-    
240901 F51  .08-  .03-    240909 F51  .04-  .15+    240909 F51  .07-  .08-    

Ephemerides (geocentric):
Date (UTC) HH   RA             Dec           delta  r     elong  mag " sig PA
---- --------  ------------   ------------  ------ ------ -----  --- --------
2024 09 11 03  01 45 56.296   -17 14 29.68  .37114 1.3178 141.6 21.9 .946  75
2024 09 11 04  01 45 52.284   -17 14 12.84  .37124 1.3181 141.6 21.9 .903  71
2024 09 11 05  01 45 48.268   -17 13 55.97  .37135 1.3183 141.7 21.9 .864  67
2024 09 11 06  01 45 44.248   -17 13 39.08  .37146 1.3185 141.7 21.9 .829  62
2024 09 11 07  01 45 40.224   -17 13 22.18  .37157 1.3187 141.8 21.9 .799  57
2024 09 11 08  01 45 36.196   -17 13 05.25  .37168 1.3190 141.8 21.9 .776  51
2024 09 11 09  01 45 32.165   -17 12 48.30  .37179 1.3192 141.9 21.9 .759  46
2024 09 11 10  01 45 28.130   -17 12 31.32  .37190 1.3194 141.9 21.9 .751  39
2024 09 11 11  01 45 24.090   -17 12 14.33  .37201 1.3196 141.9 21.9 .750  33
2024 09 11 12  01 45 20.048   -17 11 57.31  .37213 1.3199 142.0 21.9 .759  27
2024 09 11 13  01 45 16.001   -17 11 40.28  .37224 1.3201 142.0 21.9 .776  21
2024 09 11 14  01 45 11.950   -17 11 23.22  .37235 1.3203 142.1 21.9 .801  15
2024 09 11 15  01 45 07.896   -17 11 06.14  .37246 1.3205 142.1 21.9 .834   9
2024 09 11 16  01 45 03.838   -17 10 49.04  .37257 1.3208 142.2 21.9 .874   4
2024 09 11 17  01 44 59.777   -17 10 31.92  .37268 1.3210 142.2 21.9 .921   0
2024 09 11 18  01 44 55.711   -17 10 14.77  .37279 1.3212 142.3 21.9 .974 175
2024 09 11 19  01 44 51.642   -17 09 57.61  .37291 1.3214 142.3 21.9 1.03 172
2024 09 11 20  01 44 47.569   -17 09 40.42  .37302 1.3217 142.4 21.9 1.09 168
2024 09 11 21  01 44 43.493   -17 09 23.21  .37313 1.3219 142.4 21.9 1.16 165
2024 09 11 22  01 44 39.413   -17 09 05.98  .37324 1.3221 142.4 21.9 1.23 162
2024 09 11 23  01 44 35.329   -17 08 48.72  .37336 1.3223 142.5 21.9 1.30 160
2024 09 12 00  01 44 31.242   -17 08 31.45  .37347 1.3226 142.5 21.9 1.38 157
2024 09 12 01  01 44 27.151   -17 08 14.15  .37358 1.3228 142.6 21.9 1.46 155
2024 09 12 02  01 44 23.056   -17 07 56.83  .37369 1.3230 142.6 21.9 1.54 153
2024 09 12 03  01 44 18.958   -17 07 39.49  .37381 1.3232 142.7 21.9 1.62 152
2024 09 12 04  01 44 14.856   -17 07 22.13  .37392 1.3235 142.7 21.9 1.71 150
2024 09 12 05  01 44 10.751   -17 07 04.74  .37403 1.3237 142.8 21.9 1.80 149
2024 09 12 06  01 44 06.642   -17 06 47.34  .37415 1.3239 142.8 21.9 1.89 147
2024 09 12 07  01 44 02.529   -17 06 29.91  .37426 1.3241 142.9 21.9 1.98 146
2024 09 12 08  01 43 58.413   -17 06 12.46  .37438 1.3244 142.9 21.9 2.07 145
2024 09 12 09  01 43 54.294   -17 05 54.98  .37449 1.3246 142.9 21.9 2.16 144
2024 09 12 10  01 43 50.171   -17 05 37.48  .37461 1.3248 143.0 21.9 2.26 143
2024 09 12 11  01 43 46.044   -17 05 19.97  .37472 1.3250 143.0 21.9 2.36 142
2024 09 12 12  01 43 41.914   -17 05 02.43  .37484 1.3253 143.1 21.9 2.46 141
2024 09 12 13  01 43 37.781   -17 04 44.86  .37495 1.3255 143.1 21.9 2.56 140
2024 09 12 14  01 43 33.644   -17 04 27.28  .37507 1.3257 143.2 21.9 2.66 139
2024 09 12 15  01 43 29.504   -17 04 09.67  .37518 1.3259 143.2 21.9 2.76 139
2024 09 12 16  01 43 25.360   -17 03 52.04  .37530 1.3262 143.3 21.9 2.86 138
2024 09 12 17  01 43 21.213   -17 03 34.38  .37541 1.3264 143.3 21.9 2.97 137
2024 09 12 18  01 43 17.063   -17 03 16.71  .37553 1.3266 143.3 21.9 3.07 137
2024 09 12 19  01 43 12.909   -17 02 59.01  .37565 1.3268 143.4 21.9 3.18 136
2024 09 12 20  01 43 08.752   -17 02 41.29  .37576 1.3271 143.4 21.9 3.29 135
2024 09 12 21  01 43 04.591   -17 02 23.54  .37588 1.3273 143.5 21.9 3.40 135
2024 09 12 22  01 43 00.427   -17 02 05.78  .37599 1.3275 143.5 21.9 3.51 134
2024 09 12 23  01 42 56.260   -17 01 47.99  .37611 1.3277 143.6 21.9 3.62 134
2024 09 13 00  01 42 52.089   -17 01 30.18  .37623 1.3280 143.6 21.9 3.74 133
2024 09 13 01  01 42 47.916   -17 01 12.34  .37635 1.3282 143.7 21.9 3.85 133
2024 09 13 02  01 42 43.739   -17 00 54.48  .37646 1.3284 143.7 21.9 3.97 133